Location: La Brionne
(46.1728°N, 1.7849°E)
Time: 07:15:30
(UTC+00:00)

Cosmos 1536 Rocket - Pass Details

Date: 16 June 2021
Orbit: 604 x 633 km, 82.5° (Epoch: 02 August)

Event Time Altitude Azimuth Distance (km) Brightness Sun altitude
Exits shadow 22:35:22 20° 217° (SW) 1,469 5.2 -18.2°
Maximum altitude 22:38:12 47° 283° (WNW) 841 4.4 -18.4°
Drops below altitude 10° 22:42:32 10° 358° (N) 2,018 7.3 -18.6°
Sets 22:44:51 0° 4° (N) 2,926 8.3 -18.7°
